Location: Errabaliem
(16.8108°N, 80.4255°E)
Time: 07:52:27
(UTC+00:00)

OAO 3 Rocket - Pass Details

Date: 05 August 2024
Orbit: 621 x 669 km, 35.0° (Epoch: 10 September)

Event Time Altitude Azimuth Distance (km) Brightness Sun altitude
Rises 14:01:10 0° 311° (NW) 2,905 8.0 -12.6°
Reaches altitude 10° 14:03:38 10° 319° (NW) 1,991 6.7 -13.2°
Maximum altitude 14:07:59 40° 29° (NNE) 919 3.9 -14.1°
Enters shadow 14:10:34 21° 87° (E) 1,393 4.3 -14.7°
